Location: Beutels
(47.8767°N, 9.8584°E)
Time: 10:23:16
(UTC+00:00)

Meteor 1-18 Rocket - Pass Details

Date: 19 May 2025
Orbit: 836 x 907 km, 81.2° (Epoch: 23 June)

Event Time Altitude Azimuth Distance (km) Brightness Sun altitude
Exits shadow 23:14:40 45° 199° (SSW) 1,189 4.5 -22.1°
Maximum altitude 23:16:34 82° 282° (WNW) 903 4.3 -22.1°
Drops below altitude 10° 23:22:29 10° 10° (N) 2,586 7.8 -22.1°
Sets 23:24:58 0° 12° (NNE) 3,538 8.9 -22.1°
